Weather History for Guthrie, OK

Change the Weather History Date:

Monday, May 20, 2013

  Actual Average Record
Temperature  
Mean Temperature 76 °F -  
Max Temperature 84 °F 81 °F 99 °F (2006)
Min Temperature 70 °F 57 °F 35 °F (1981)
Cooling Degree Days 12    
Growing Degree Days 26 (Base 50)    
Moisture  
Dew Point 67 °F    
Average Humidity 73    
Maximum Humidity 87    
Minimum Humidity 56    
Precipitation  
Precipitation 0.00 in - - ()
Sea Level Pressure  
Sea Level Pressure 29.67 in    
Wind  
Wind Speed 8 mph (SSW)    
Max Wind Speed 20 mph    
Max Gust Speed 29 mph    
Visibility 6 miles    
Events Thunderstorm    
Averages and records for this station are not official NWS values.
T = Trace of Precipitation, MM = Missing Value Source: NWS Daily Summary

Daily Weather History Graph

Daily Weather History Graph

Search for Another Location

Airport:

Trip Planner

Search our weather history database for the weather conditions in past years. The results will help you decide how hot, cold, wet, or windy it might be!

Date:

Astronomy

May. 20, 2013 Rise Set
Actual Time 6:20 AM CDT 8:32 PM CDT
Civil Twilight 5:51 AM CDT 9:01 PM CDT
Nautical Twilight 5:16 AM CDT 9:36 PM CDT
Astronomical Twilight 4:38 AM CDT 10:15 PM CDT
Moon 3:50 PM CDT (5/20) 3:06 AM CDT (5/20)
Length of Visible Light 15h 09m
Length of Day
14h 11m
Waxing Gibbous, 75% of the Moon is Illuminated
May 20
Waxing Gibbous
May 24
Full
May 31
Last Quarter
Jun 8
New
Jun 16
First Quarter

Hourly Weather History & Observations

Time (CDT) Temp. Heat Index Dew Point Humidity Pressure Visibility Wind Dir Wind Speed Gust Speed Precip Events Conditions
12:53 AM 78.1 °F - 69.1 °F 74% 29.61 in 5.0 mi South 10.4 mph - N/A   Haze
1:53 AM 78.1 °F - 69.1 °F 74% 29.60 in 7.0 mi South 10.4 mph 19.6 mph N/A   Clear
2:53 AM 77.0 °F - 68.0 °F 74% 29.60 in 7.0 mi SSW 4.6 mph - N/A   Clear
3:53 AM 75.9 °F - 68.0 °F 76% 29.63 in 7.0 mi SW 6.9 mph - N/A   Clear
4:53 AM 73.9 °F - 66.9 °F 79% 29.63 in 7.0 mi South 10.4 mph - N/A   Clear
7:53 AM 73.9 °F - 66.9 °F 79% 29.70 in 6.0 mi West 5.8 mph - N/A   Haze
8:03 AM 73.4 °F - 66.2 °F 78% 29.72 in 6.0 mi SSW 6.9 mph - N/A   Haze
9:53 AM 75.0 °F - 68.0 °F 79% 29.71 in 6.0 mi SSW 5.8 mph - N/A   Haze
10:53 AM 75.9 °F - 69.1 °F 79% 29.70 in 6.0 mi SSW 10.4 mph - N/A   Haze
11:49 AM 80.6 °F 84.6 °F 71.6 °F 74% 29.72 in 5.0 mi South 8.1 mph - N/A   Haze
11:53 AM 80.1 °F 83.6 °F 71.1 °F 74% 29.69 in 5.0 mi South 10.4 mph - N/A   Haze
12:53 PM 81.0 °F 84.1 °F 69.1 °F 67% 29.68 in 6.0 mi WSW 9.2 mph - N/A   Haze
1:53 PM 82.9 °F 87.0 °F 70.0 °F 65% 29.67 in 6.0 mi WNW 8.1 mph - N/A   Haze
2:45 PM 82.4 °F 86.3 °F 69.8 °F 66% 29.67 in 6.0 mi NNW 5.8 mph - N/A Thunderstorm Haze
2:53 PM 82.0 °F 85.5 °F 69.1 °F 65% 29.66 in 6.0 mi WNW 4.6 mph - N/A Thunderstorm Haze
3:53 PM 82.0 °F 83.8 °F 64.9 °F 56% 29.63 in 9.0 mi SSE 8.1 mph - N/A   Scattered Clouds
4:53 PM 73.9 °F - 64.9 °F 73% 29.67 in 7.0 mi South 19.6 mph 28.8 mph N/A   Scattered Clouds
5:17 PM 75.2 °F - 62.6 °F 65% 29.68 in 8.0 mi South 11.5 mph - N/A Thunderstorm Clear
5:33 PM 75.2 °F - 64.4 °F 69% 29.68 in 8.0 mi SW 5.8 mph - N/A   Clear
5:53 PM 75.9 °F - 64.0 °F 67% 29.65 in 7.0 mi West 4.6 mph - N/A   Clear
6:53 PM 79.0 °F - 64.9 °F 62% 29.64 in 7.0 mi Calm Calm - N/A   Clear
7:53 PM 77.0 °F - 68.0 °F 74% 29.63 in 7.0 mi Calm Calm - N/A   Partly Cloudy
9:53 PM 72.0 °F - 68.0 °F 87% 29.72 in 6.0 mi South 3.5 mph - N/A   Mostly Cloudy
10:53 PM 71.1 °F - 66.9 °F 87% 29.74 in 7.0 mi Calm Calm - N/A   Scattered Clouds
11:53 PM 70.0 °F - 64.9 °F 84% 29.76 in 6.0 mi Calm Calm - N/A   Haze